Weather History for Kindakun Rocks, BC

Change the Weather History Date:

Saturday, December 29, 2012

  Actual Average Record
Temperature  
Mean Temperature 42 °F -  
Max Temperature 45 °F - - ()
Min Temperature 40 °F - - ()
Degree Days  
Heating Degree Days 22    
Moisture  
Dew Point 40 °F    
Average Humidity 88    
Maximum Humidity 94    
Minimum Humidity 78    
Precipitation  
Precipitation 0.00 in - - ()
Sea Level Pressure  
Sea Level Pressure 30.10 in    
Wind  
Wind Speed 9 mph ()    
Max Wind Speed 31 mph    
Max Gust Speed 38 mph    
T = Trace of Precipitation, MM = Missing Value Source: Averaged Metar Reports

Daily Weather History Graph

Daily Weather History Graph

Search for Another Location

Airport:

Trip Planner

Search our weather history database for the weather conditions in past years. The results will help you decide how hot, cold, wet, or windy it might be!

Date:

Astronomy

Dec. 29, 2012 Rise Set
Actual Time 9:06 AM PST 4:40 PM PST
Civil Twilight 8:23 AM PST 5:23 PM PST
Nautical Twilight 7:38 AM PST 6:08 PM PST
Astronomical Twilight 6:56 AM PST 6:51 PM PST
Moon 6:37 PM PST (12/29) 9:29 AM PST (12/29)
Length of Visible Light 8h 59m
Length of Day
7h 34m
Full, 98% of the Moon is Illuminated
Dec 29
Full
Jan 4
Last Quarter
Jan 11
New
Jan 18
First Quarter
Jan 26
Full

Hourly Weather History & Observations

Time (PST) Temp. Windchill Dew Point Humidity Pressure Visibility Wind Dir Wind Speed Gust Speed Precip Events Conditions
12:00 AM 41.7 °F 35.6 °F 38.3 °F 88% 30.11 in - South 10.4 mph - N/A   Unknown
1:00 AM 42 °F - 38 °F 79% 30.10 in - SSE 10.4 mph - -  
1:00 AM 42.1 °F 36.1 °F 37.6 °F 84% 30.10 in - SSE 10.4 mph - N/A   Unknown
2:00 AM 42.4 °F 37.5 °F 38.3 °F 85% 30.10 in - South 8.1 mph - N/A   Unknown
3:00 AM 42.4 °F 39.6 °F 38.5 °F 86% 30.12 in - South 4.6 mph - N/A   Unknown
4:00 AM 43 °F - 39 °F 79% 30.13 in - South 4.6 mph - -  
4:00 AM 42.6 °F 39.9 °F 38.7 °F 86% 30.13 in - South 4.6 mph - N/A   Unknown
5:00 AM 42.8 °F 41.1 °F 39.0 °F 86% 30.13 in - SSE 3.5 mph - N/A   Unknown
6:00 AM 42.6 °F 39.9 °F 39.2 °F 88% 30.14 in - South 4.6 mph - N/A   Unknown
7:00 AM 42 °F - 40 °F 90% 30.13 in - SSE 6.9 mph - -  
7:00 AM 42.4 °F 38.1 °F 40.1 °F 91% 30.13 in - SSE 6.9 mph - N/A   Unknown
8:00 AM 43.2 °F 40.5 °F 40.1 °F 89% 30.13 in - SSE 4.6 mph - N/A   Unknown
9:00 AM 42.6 °F 40.9 °F 39.6 °F 89% 30.14 in - South 3.5 mph - N/A   Unknown
10:00 AM 43 °F - 40 °F 85% 30.14 in - SSE 8.1 mph - -  
10:00 AM 43.2 °F 38.4 °F 40.1 °F 89% 30.14 in - SSE 8.1 mph - N/A   Unknown
11:00 AM 42.8 °F 38.6 °F 39.7 °F 89% 30.14 in - SE 6.9 mph - N/A   Unknown
12:00 PM 43.5 °F 37.9 °F 40.6 °F 90% 30.14 in - SSE 10.4 mph - N/A   Unknown
1:00 PM 45 °F - 41 °F 81% 30.12 in - South 10.4 mph - -  
1:00 PM 44.8 °F 39.4 °F 41.0 °F 87% 30.12 in - South 10.4 mph - N/A   Unknown
2:00 PM 44.6 °F 38.8 °F 41.2 °F 88% 30.12 in - South 11.5 mph - N/A   Unknown
3:00 PM 44.8 °F 37.4 °F 42.6 °F 92% 30.11 in - South 17.3 mph - N/A   Unknown
4:00 PM 44 °F - 42 °F 91% 30.10 in - South 12.7 mph - -  
4:00 PM 44.4 °F 38.2 °F 42.3 °F 92% 30.10 in - South 12.7 mph - N/A   Unknown
5:00 PM 44.2 °F 36.4 °F 42.6 °F 94% 30.09 in - South 18.4 mph - N/A   Unknown
6:00 PM 43.7 °F 37.7 °F 41.9 °F 93% 30.06 in - South 11.5 mph - N/A   Unknown
7:00 PM 44 °F - 42 °F 89% 30.06 in - South 12.7 mph - -  
7:00 PM 43.7 °F 37.3 °F 41.7 °F 93% 30.06 in - South 12.7 mph - N/A   Unknown
8:00 PM 43.9 °F 37.5 °F 41.2 °F 90% 30.05 in - South 12.7 mph - N/A   Unknown
9:00 PM 44.6 °F 37.8 °F 41.0 °F 87% 30.04 in - South 15.0 mph - N/A   Unknown
10:00 PM 45 °F - 40 °F 78% 30.02 in - South 17.3 mph - -  
10:00 PM 45.1 °F 37.9 °F 40.5 °F 84% 30.02 in - South 17.3 mph - N/A   Unknown
11:00 PM 45.0 °F 35.1 °F 42.1 °F 90% 30.02 in - South 31.1 mph 38.0 mph N/A   Unknown